Regional Weather Roundup
Issued by NWS

Home | Current Version | Previous Version | Text Only | Print | Product List | Glossary On
Versions: 1 2 3 4 5 6 7 8 9 10 11 12 13 14 15 16 17 18 19 20 21 22 23 24 25 26 27 28 29 30 31 32 33 34 35 36 37 38 39 40 41 42 43 44 45 46 47 48 49 50
000
ASUS43 KTOP 212308
RWRKS

WEATHER ROUNDUP FOR KANSAS
NATIONAL WEATHER SERVICE GOODLAND KS
600 PM CDT SUN SEP 21 2014

NOTE:  "FAIR" INDICATES FEW OR NO CLOUDS BELOW 12,000 FEET WITH NO
SIGNIFICANT WEATHER AND/OR OBSTRUCTIONS TO VISIBILITY.

KSZ001>006-013>018-027>032-041>047-220000-
NORTHWEST KANSAS

CITY           SKY/WX    TMP DP  RH WIND       PRES   REMARKS
GOODLAND       PTSUNNY   73  40  30 SE6       30.29F
HAYS           SUNNY     77  39  25 NE10      30.23S
HILL CITY      SUNNY     79  38  22 NE9       30.25S
RUSSELL        SUNNY     77  36  22 NE10      30.21S
$$

KSZ061>065-074>080-084>089-220000-
SOUTHWEST KANSAS

CITY           SKY/WX    TMP DP  RH WIND       PRES   REMARKS
DODGE CITY     SUNNY     80  39  23 NE12      30.23S
ELKHART          N/A     81  45  28 E13         N/A
GARDEN CITY    SUNNY     78  41  26 NE10      30.24S
GREAT BEND     SUNNY     77  43  29 E9        30.22S
LIBERAL        SUNNY     81  45  28 E12G18    30.23S
PRATT          SUNNY     77  37  24 NE13      30.23R
$$

KSZ066>073-081>083-090>101-220000-
SOUTHEAST KANSAS

CITY           SKY/WX    TMP DP  RH WIND       PRES   REMARKS
CHANUTE        SUNNY     77  47  34 N8        30.15R
HUTCHINSON     SUNNY     79  41  25 N9        30.20S
MEDICINE LODGE   N/A     82  43  25 NE15      30.18R
NEWTON         SUNNY     75  45  33 NE12      30.22R
PARSONS        SUNNY     79  51  37 N9        30.15R
WICHITA INTL   MOSUNNY   81  39  22 N14G21    30.18R
WICHITA JABRA  SUNNY     79  40  24 N13       30.18S
WICHITA MCCONL SUNNY     79  41  25 N13       30.18S
WINFIELD       SUNNY     81  44  27 N13       30.16S
$$

KSZ007>012-019>026-033>040-048>060-102>105-220000-
NORTHEAST KANSAS

CITY           SKY/WX    TMP DP  RH WIND       PRES   REMARKS
CONCORDIA      SUNNY     75  43  31 N13       30.22R
EMPORIA        SUNNY     75  47  36 N8        30.17R
LAWRENCE       SUNNY     74  45  35 N10G21    30.16S
MANHATTAN      SUNNY     77  43  29 N9        30.18S
MARYSVILLE     SUNNY     73  45  35 N13       30.20S
OLATHE IND     SUNNY     72  48  42 N16       30.17R
OLATHE EXE     SUNNY     74  46  36 N12       30.15R
SALINA         SUNNY     78  42  27 N13       30.20S
TOPEKA BILLARD SUNNY     75  48  38 NW14      30.17S
TOPEKA FORBES  SUNNY     74  46  36 N16G22    30.17S
$$



USA.gov is the U.S. government's official web portal to all federal, state and local government web resources and services.